Погода в Стригунах

Россия / Белгородская область     50°37′20″N   36°06′01″E
темп.,
°C
ветер,
м/с
пор.,
м/с
влажн.,
%
обл.,
%
осадки,
мм/ч
давл.,
гПа
погр.,
м
7 мая, пт
пт700:00+8ссв3593100 3.3 1012338
03:00+7сз2496100 3.6 1013112
06:00+7зсз239369 0.0 101489
09:00+11зсз23755 0.0 1015610
12:00+15зюз3449100 0.0 10151912
15:00+16юз3444100 0.0 10152252
18:00+15ююз3558100 0.0 1014459
21:00+11ююв4866100 0.0 1014133
8 мая, сб
сб800:00+11юв61466100 0.0 1012316
03:00+12ююв81761100 0.1 1010612
06:00+11ююв81782100 0.3 1009604
09:00+12ю91778100 0.4 1007921
12:00+12ююз81495100 8.5 1007663
15:00+11з5887100 9.7 1009847
18:00+10зсз5983100 0.3 1010841
21:00+7з41188100 0.4 1012596
9 мая, вс
вс900:00+6зсз51089100 0.0 1014587
03:00+6сз61084100 0.0 1016927
06:00+4сз51291100 0.0 1018590
09:00+8ссз7116526 0.0 10191044
12:00+11ссз911517 0.0 10201873
15:00+12ссз8104499 0.0 10212597
18:00+10ссз795938 0.2 10231477
21:00+6ссз38725 0.2 1025179
10 мая, пн
пн1000:00+4ссз35813 0.0 102685
03:00+3ссз49820 0.0 1027171
06:00+4ссз411790 0.0 1028241
09:00+10с711580 0.0 10281284
12:00+13ссв911465 0.0 10271701
15:00+14ссв911465 0.0 10261795
18:00+13ссв7125988 0.0 10261427
21:00+11ссв7136169 0.0 1026794
11 мая, вт
вт1100:00+9ссв614695 0.0 1025503
03:00+7ссв6137511 0.0 1025369
06:00+7ссв614765 0.0 1025380
09:00+12св812645 0.0 1024595
12:00+17св89602 0.0 1023953
15:00+18св796062 0.0 10231390
18:00+16всв6107496 0.0 1024880
21:00+11всв38920 0.3 1024178